CZ-7A DEB (50324 NORAD) Tracking and Keplerian Element Data
This shows tracking and keplerian element data for the satellite.
Feedback or suggestion? Click here.
Element | Value |
Catalog | 50324 |
Name | CZ-7A DEB |
Epoch Orbit | 36 |
Epoch Day | 7.82429579 |
Epoch Year | 2022 |
RAAN | 259.8742 |
Inclination | 19.4722 |
Eccentricity | 0.7278556 |
Argument of Perigee | 190.8463 |
Mean Anonmoly | 134.327 |
Mean Motion | 2.31875244 |
Decay Rate | 0.00124262 |
L1 | 1 50324U 21129D 22007.82429579 .00124262 -23449-6 62849-2 0 9993 |
L2 | 2 50324 19.4722 259.8742 7278556 190.8463 134.3270 2.31875244 364 |
Live tracking and technical data element details for CZ-7A DEB (NORAD 50324). CZ-7A DEB can be tracked NOW for your location showing map with azimuth and elevation plus other details from your city location.
Track the satellite on the map from your city or location and see movement details for azimuth, elevation, latitude, longitude, range, height, and movement on the map or in text.
IsCatalogInMostPopularTable: catalog: 50324, numindb: 20
Update: records affected: 1
GetName: 50324 CZ-7A DEB
Hit Count: updated at: Sun, 22 May 2022 03:57:51 GMT